Penticton, British Columbia

3:24 AM PST on December 07, 2016 (GMT -0800)
Penticton

Weather History for CYYF - September, 2012

Change the Weather History Date:

Sunday, September 2, 2012

  Actual Average Record
Temperature  
Mean Temperature 60 °F -  
Max Temperature 77 °F 74 °F 95 °F (1998)
Min Temperature 42 °F 50 °F 41 °F (2008)
Degree Days  
Heating Degree Days 6    
Growing Degree Days 10 (Base 50)    
Moisture  
Dew Point 40 °F    
Average Humidity 45    
Maximum Humidity 71    
Minimum Humidity 23    
Precipitation  
Precipitation 0.00 in - - ()
Sea Level Pressure  
Sea Level Pressure 30.06 in    
Wind  
Wind Speed 4 mph ()    
Max Wind Speed 10 mph    
Max Gust Speed -    
Visibility 15.0 miles    
Events      
Averages and records for this station are not official NWS values.
T = Trace of Precipitation, MM = Missing Value Source: Averaged Metar Reports

Daily Weather History Graph

Daily Weather History Graph

Search for Another Location

Airport or City:

Trip Planner

Search our weather history database for the weather conditions in past years. The results will help you decide how hot, cold, wet, or windy it might be!

Date:

Astronomy

Sep. 02, 2012 Rise Set
Actual Time 6:16 AM PDT 7:38 PM PDT
Civil Twilight 5:43 AM PDT 8:11 PM PDT
Nautical Twilight 5:03 AM PDT 8:51 PM PDT
Astronomical Twilight 4:19 AM PDT 9:34 PM PDT
Moon 8:06 PM PDT (9/2) 8:49 AM PDT (9/2)
Length of Visible Light 14h 27m
Length of Day
13h 21m
Waning Gibbous, 95% of the Moon is Illuminated
Sep 2
Waning Gibbous
Sep 8
Last Quarter
Sep 15
New
Sep 22
First Quarter
Sep 29
Full

Hourly Weather History & Observations

Time (PDT) Temp. Windchill Dew Point Humidity Pressure Visibility Wind Dir Wind Speed Gust Speed Precip Events Conditions
12:00 AM 53.6 °F - 35.6 °F 51% 30.03 in 15.0 mi North 3.5 mph - N/A   Clear
1:00 AM 51.8 °F - 35.6 °F 54% 30.04 in 15.0 mi NNW 3.5 mph - N/A   Clear
2:00 AM 51.8 °F - 37.4 °F 58% 30.04 in 15.0 mi NNW 6.9 mph - N/A   Clear
3:00 AM 51.8 °F - 33.8 °F 50% 30.05 in 15.0 mi NNW 6.9 mph - N/A   Clear
4:00 AM 50.0 °F - 35.6 °F 58% 30.06 in 15.0 mi North 3.5 mph - N/A   Clear
5:00 AM 43 °F - 35 °F 63% 30.07 in - Calm Calm - -   Clear
5:00 AM 42.8 °F - 33.8 °F 70% 30.07 in 15.0 mi Variable 2.3 mph - N/A   Partly Cloudy
6:00 AM 44.6 °F 41.4 °F 35.6 °F 71% 30.08 in 15.0 mi NNE 5.8 mph - N/A   Scattered Clouds
7:00 AM 46.4 °F 44.3 °F 35.6 °F 66% 30.09 in 15.0 mi NNW 4.6 mph - N/A   Scattered Clouds
8:00 AM 59.0 °F - 37.4 °F 45% 30.09 in 15.0 mi NNW 3.5 mph - N/A   Partly Cloudy
9:00 AM 62.6 °F - 39.2 °F 42% 30.10 in 15.0 mi Calm Calm - N/A   Partly Cloudy
10:00 AM 66.2 °F - 41.0 °F 40% 30.09 in 15.0 mi Calm Calm - N/A   Partly Cloudy
11:00 AM 69 °F - 39 °F 23% 30.09 in - NE 2.3 mph - -   Scattered Clouds
11:00 AM 68.0 °F - 39.2 °F 35% 30.09 in 15.0 mi NNE 3.5 mph - N/A   Partly Cloudy
12:00 PM 68.0 °F - 39.2 °F 35% 30.08 in 15.0 mi NE 5.8 mph - N/A   Scattered Clouds
1:00 PM 73.4 °F - 41.0 °F 31% 30.06 in 15.0 mi North 5.8 mph - N/A   Partly Cloudy
2:00 PM 75.2 °F - 42.8 °F 31% 30.05 in 15.0 mi North 10.4 mph - N/A   Partly Cloudy
3:00 PM 77.0 °F - 44.6 °F 32% 30.04 in 15.0 mi North 8.1 mph - N/A   Scattered Clouds
4:00 PM 73.4 °F - 44.6 °F 36% 30.04 in 15.0 mi North 6.9 mph - N/A   Scattered Clouds
5:00 PM 74 °F - 44 °F 23% 30.04 in - North 8.1 mph - -   Scattered Clouds
5:00 PM 73.4 °F - 42.8 °F 33% 30.03 in 15.0 mi North 6.9 mph - N/A   Partly Cloudy
6:00 PM 69.8 °F - 46.4 °F 43% 30.04 in 15.0 mi North 8.1 mph - N/A   Partly Cloudy
7:00 PM 69.8 °F - 46.4 °F 43% 30.04 in 15.0 mi NW 5.8 mph - N/A   Partly Cloudy
8:00 PM 68.0 °F - 44.6 °F 43% 30.03 in 15.0 mi NW 5.8 mph - N/A   Partly Cloudy
9:00 PM 60.8 °F - 44.6 °F 55% 30.06 in 15.0 mi NNW 8.1 mph - N/A   Scattered Clouds
10:00 PM 62.6 °F - 41.0 °F 45% 30.06 in 15.0 mi North 8.1 mph - N/A   Partly Cloudy
11:00 PM 61 °F - 41 °F 35% 30.07 in - North 8.1 mph - -   Scattered Clouds
11:00 PM 60.8 °F - 41.0 °F 48% 30.06 in 15.0 mi North 8.1 mph - N/A   Partly Cloudy